Location: Newark
(33.9035°S, 18.4112°E)
Time: 10:13:00
(UTC+00:00)

STARLINK-1116 - Pass Details

Date: 18 January 2020
Orbit: 348 x 351 km, 53.0° (Epoch: 22 February)

Event Time Altitude Azimuth Distance (km) Brightness Sun altitude
Exits shadow 03:16:05 - 337° (NNW) 1,592 5.5 -7.6°
Reaches altitude 10° 03:16:47 10° 341° (NNW) 1,315 5.1 -7.5°
Maximum altitude 03:19:31 35° 50° (NE) 588 4.0 -7.0°
Drops below altitude 10° 03:22:16 10° 118° (ESE) 1,332 7.5 -6.5°
Sets 03:24:23 0° 127° (SE) 2,183 9.2 -6.1°
